Location: Breitbrunn
(48.2500°N, 14.1667°E)
Time: 13:27:18
(UTC+00:00)

Daily predictions for brighter satellites

Satellite Brightness Start Highest point End
(mag) Time Altitude Azimuth Time Altitude Azimuth Time Altitude Azimuth
Cosmos 1818 4.2 17:40:55 10° NNW 17:46:03 39° NE 17:51:09 10° ESE
Cosmos 407 Rocket 3.5 17:41:01 10° NNW 17:46:21 77° ENE 17:51:42 10° SSE
Cosmos 1842 3.4 17:44:24 10° N 17:48:08 49° ENE 17:51:50 10° SSE
Cosmos 1975 4.3 17:45:47 10° SE 17:48:18 16° E 17:50:49 10° NE
USA 267 4.2 17:44:35 10° SSE 17:50:55 49° SW 17:57:16 10° WNW
Cosmos 2322 4.3 17:45:54 10° NNW 17:51:13 39° NE 17:56:29 10° ESE
NOSS 3-1 (A) 4.2 17:46:09 10° WSW 17:51:18 50° NW 17:57:30 10° NE
CZ-4C R/B 4.3 17:47:29 10° NW 17:51:57 21° N 17:57:08 10° NE
CZ-4B R/B 3.3 17:47:28 10° SSE 17:53:08 76° ENE 17:58:47 10° NNW
Cosmos 1626 2.8 17:50:21 10° N 17:53:35 31° ENE 17:56:47 10° SE
SJ-6B 3.5 17:50:43 10° SE 17:54:17 34° ENE 17:57:49 10° N
COSMO-SKYMED 1 3.9 17:51:25 10° N 17:55:35 45° WNW 17:59:43 10° SW
Cosmos 2333 Rocket 2.3 17:51:06 10° NNW 17:56:55 73° ENE 18:02:40 10° SE
USA 186 2.8 17:54:21 10° SE 17:56:56 25° ENE 17:59:34 10° NNE
CZ-4C R/B 3.8 17:53:55 10° N 17:57:35 63° WNW 18:01:25 10° SSW
NOSS 3-2 (A) 4.4 17:50:58 10° NW 17:57:49 47° NE 18:05:45 10° ESE
ATLAS 3B R/B 4.4 17:56:16 10° W 18:02:23 30° NNW 18:08:49 10° NE
GEOS 3 Rocket 3.8 17:57:58 10° NE 18:03:24 89° NW 18:08:48 10° SW
Cosmos 1536 3.3 18:00:35 10° SSW 18:04:29 65° W 18:08:24 10° N
Cosmos 2056 Rocket 3.8 17:59:45 10° S 18:04:31 40° ESE 18:09:16 10° NE
Meteor 2-9 Rocket 4.2 18:01:50 10° S 18:07:14 57° E 18:12:33 10° NNE
Cosmos 2219 Rocket 2.3 18:01:59 10° NNW 18:07:39 61° ENE 18:13:16 10° SE
COSMOS 2428 3.3 18:02:36 10° NNW 18:08:01 41° NE 18:13:07 11° ESE
MINOTAUR 4 R/B 3.9 18:05:00 10° NNE 18:08:23 57° ESE 18:11:45 10° S
Cosmos 1833 4.1 18:03:17 10° SSW 18:08:48 68° ESE 18:14:24 10° NNE
CZ-4 R/B 1.2 18:05:04 10° SSE 18:08:53 87° ENE 18:12:46 10° NNW
JB-3 4.4 18:05:44 10° NNE 18:09:43 61° E 18:13:44 10° S
Cosmos 1459 Rocket 4.1 18:04:14 10° N 18:10:10 53° ENE 18:16:04 10° SSE
Feng Yun 1-1 Rocket 4.2 18:04:46 10° SSE 18:10:13 72° ENE 18:15:52 10° NNW
Cosmos 1707 2.8 18:06:46 10° N 18:10:31 51° ENE 18:14:12 10° SSE
Cosmos 1666 Rocket 4.1 18:07:42 10° SSW 18:12:03 62° WNW 18:16:24 10° N
Cosmos 1933 Rocket 4.0 18:08:43 10° SSE 18:12:44 39° E 18:16:47 10° NNE
SPOT 1/Viking Rocket 4.4 18:09:33 10° ESE 18:13:56 30° ENE 18:18:24 10° N
USA 307 2.8 18:11:07 10° WNW 18:14:56 69° SSW 18:18:12 14° SE
USA 305 2.7 18:11:18 10° WNW 18:15:06 73° SSW 18:18:19 14° SE
CSL-04 Debris 4.3 18:11:14 10° SE 18:16:30 55° ENE 18:21:48 10° N
CENTAUR R/B 3.4 18:09:48 10° NW 18:17:41 60° NE 18:25:32 14° ESE
Cosmos 1624 Rocket 4.1 18:13:14 10° S 18:18:21 53° ESE 18:23:32 10° NNE
Geosat 4.4 18:14:08 11° SE 18:18:39 47° NE 18:23:27 10° NNW
Resurs 01 Rocket 2.8 18:17:20 15° ESE 18:19:53 25° ENE 18:23:30 10° N
USA 281 3.6 18:13:28 10° NNE 18:20:01 68° WNW 18:26:30 10° SW
Okean 1-7 3.0 18:17:09 10° N 18:21:31 65° E 18:25:50 10° SSE
Cosmos 1869 Rocket 4.5 18:18:21 10° SE 18:21:56 26° E 18:25:32 10° NNE
Spot 1 4.4 18:17:35 10° NNE 18:22:25 63° ESE 18:27:26 10° S
Cosmos 1802 Rocket 4.1 18:17:11 10° N 18:23:17 53° ENE 18:29:26 10° SSE
SL-16 R/B 4.4 18:20:15 10° NW 18:24:52 26° WSW 18:29:28 10° SSW
Okean 2 4.4 18:21:53 10° NNE 18:25:18 25° ENE 18:26:57 20° ESE
Meteor 1-23 Rocket 4.5 18:21:15 10° NNW 18:26:48 71° W 18:32:18 10° S
Cosmos 1420 Rocket 4.0 18:22:08 10° S 18:27:16 59° ESE 18:32:24 10° NNE
Okean 3 3.4 18:26:57 10° N 18:31:11 82° E 18:35:24 10° S
IRS-1C Rocket 4.5 18:27:49 13° SE 18:32:16 45° ENE 18:37:17 10° N
H-2A R/B 4.4 18:31:53 14° ENE 18:32:34 14° ENE 18:34:57 10° NNE
Cosmos 1633 Rocket 4.3 18:28:50 10° SSW 18:33:03 46° WNW 18:37:19 10° N
Iridium 4 Rocket 3.4 18:31:04 10° N 18:35:04 39° E 18:37:44 18° SE
Cosmos 1674 2.5 18:31:47 10° N 18:35:30 82° E 18:39:13 10° SSE
Cosmos 2360 Rocket 3.4 18:32:22 10° NW 18:37:40 42° WSW 18:42:55 10° S
Cosmos 2098 Rocket 3.8 18:33:38 10° SSE 18:38:29 50° E 18:44:24 10° NNE
Cosmos 1437 Rocket 3.5 18:34:51 10° SSW 18:38:52 59° WNW 18:42:53 10° N
Cosmos 1452 Rocket 4.3 18:38:02 10° SSE 18:42:28 29° E 18:46:57 10° NE
Cosmos 676 Rocket 4.0 18:38:40 10° NNW 18:43:55 89° E 18:48:49 12° SSE
Cosmos 2016 Rocket 3.9 18:38:51 10° N 18:44:56 64° ENE 18:50:59 10° SSE
Resurs 1-3 3.5 18:41:40 10° SSE 18:46:02 88° ENE 18:50:26 10° NNW
Cosmos 2123 Rocket 4.0 18:40:13 10° S 18:46:21 59° E 18:52:33 10° NNE
SL-16 R/B 4.0 18:42:50 10° N 18:46:21 16° NE 18:48:40 13° ENE
BREEZE-M DEB (TANK) 4.2 18:42:30 10° W 18:46:24 85° N 18:59:32 12° E
USA 308 3.5 18:42:54 10° WNW 18:46:28 41° SW 18:48:34 21° SSE
Cosmos 1703 Rocket 3.6 18:42:09 10° N 18:46:38 84° W 18:51:03 10° S
Okean-O 2.6 18:43:42 15° SSE 18:47:18 67° ENE 18:51:43 10° N
Cosmos 2173 Rocket 4.2 18:44:41 10° NNW 18:51:04 78° W 18:57:26 10° S
BREEZE M DEB (TANK) 1.7 18:49:54 10° W 18:52:27 78° N 18:52:44 63° NE
Landsat 5 3.5 18:52:47 10° NNE 18:56:28 42° E 18:57:16 37° SE
Cosmos 2100 Rocket 4.4 18:50:13 10° NNW 18:56:34 69° W 19:02:50 10° S
USA 215 4.1 18:50:54 10° ENE 18:57:03 45° NNW 19:03:12 10° W
Cosmos 1741 Rocket 4.3 18:52:01 10° NNW 18:57:05 47° ENE 18:59:05 32° ESE
EXPRESS MD2 4.1 18:57:32 10° W 18:59:08 19° SW 18:59:08 19° SW
Cosmos 1733 3.1 18:58:05 22° S 19:00:19 59° E 19:04:03 10° NNE
Okean O Rocket 3.3 18:57:06 10° SSW 19:01:08 34° W 19:05:11 10° NNW
Cosmos 2242 Rocket 3.5 18:57:07 10° N 19:01:45 82° E 19:04:48 21° SSE
ATLAS CENTAUR R/B 4.5 18:46:54 10° SSW 19:03:47 60° SE 19:11:56 10° ENE
Cosmos 1726 2.4 19:08:38 44° NE 19:08:38 44° NE 19:11:21 10° NNE
Cosmos 192 4.4 19:03:41 10° S 19:08:30 54° ESE 19:13:20 10° NNE
NOSS 0 Rocket 3.9 19:06:36 10° NNW 19:12:49 75° ENE 19:15:43 33° SE
ADEOS Rocket 4.2 19:11:23 25° ENE 19:12:53 27° NE 19:18:25 10° N
CARTOSAT-1 3.7 19:12:34 47° E 19:13:00 49° ENE 19:17:10 10° N
Exosat Rocket 4.2 19:10:25 10° SW 19:15:31 65° WNW 19:22:00 10° NNE
Cosmos 968 Rocket 4.3 19:12:00 10° N 19:16:40 32° NE 19:17:12 32° ENE
Terra 3.4 19:18:08 19° NE 19:18:08 19° NE 19:20:55 10° NNE
SPOT 5 3.9 19:18:20 28° NE 19:18:20 28° NE 19:22:00 10° N
SL-27 R/B 3.4 19:15:47 10° SW 19:18:58 44° WNW 19:22:08 10° N
ISS -3.2 19:16:38 10° W 19:19:56 53° NNW 19:20:08 52° N
CSL-04 Rocket 4.5 19:17:35 10° S 19:22:58 51° W 19:28:24 10° NNW
Ariane Rocket 3.4 19:22:38 42° E 19:23:04 42° ENE 19:27:50 10° N
IRS-1A Rocket 4.4 19:21:15 38° SE 19:23:33 66° ENE 19:29:22 10° N
Cosmos 1975 3.9 19:20:23 10° SSW 19:24:10 45° WNW 19:28:00 10° N
Cosmos 2237 Rocket 2.3 19:18:52 10° NNW 19:24:28 58° ENE 19:25:47 46° ESE
SPOT 3 Rocket 4.3 19:25:00 35° ENE 19:25:08 35° ENE 19:29:50 10° N
ERS-1 Rocket 4.0 19:26:32 29° ENE 19:26:32 29° ENE 19:30:30 10° N
USA 186 4.5 19:26:51 10° SW 19:29:03 18° W 19:31:17 10° NW
Cosmos 1818 4.4 19:24:32 10° NW 19:29:44 46° WSW 19:32:28 26° S
Cosmos 2061 Rocket 4.2 19:23:21 10° NNW 19:29:48 77° W 19:34:58 17° S
Meteor 2-10 3.9 19:26:00 10° SSW 19:31:01 82° WNW 19:36:08 10° N
Spot 2 Rocket 4.4 19:34:35 33° NE 19:34:35 33° NE 19:38:44 10° N
Cosmos 2233 Rocket 4.0 19:34:47 10° N 19:40:57 81° W 19:44:06 31° S
MOS 1 4.3 19:39:27 37° S 19:41:49 80° WSW 19:47:34 10° NNW
CZ-4C R/B 3.9 19:36:36 10° NW 19:42:31 33° NNE 19:45:25 25° ENE
Cosmos 1805 3.9 19:43:25 42° WSW 19:44:16 52° WNW 19:48:01 10° N
Cosmos 1980 3.6 19:39:24 10° NNW 19:45:08 84° ENE 19:46:05 63° SE
SL-14 R/B 4.0 19:43:14 10° NNW 19:46:57 47° W 19:47:11 47° WSW
Meteor 2-5 Rocket 4.3 19:42:12 10° N 19:47:22 42° ENE 19:47:22 42° ENE
NOSS 3-2 (A) 4.3 19:41:44 10° NW 19:49:08 64° SW 19:53:10 33° SSE
MetOp-A 4.0 19:48:16 57° S 19:49:24 83° WSW 19:54:42 10° NNW
Cosmos 2219 Rocket 4.1 19:46:40 10° NW 19:51:10 25° WSW 19:55:40 10° SSW
COSMOS 2428 3.8 19:46:58 10° NW 19:52:16 39° WSW 19:55:09 23° SSW
MetOp-B 4.0 19:51:49 70° SSE 19:52:29 87° ENE 19:57:52 10° NNW
BREEZE-M DEB (TANK) 3.6 19:49:03 10° WNW 19:52:45 45° WNW 19:52:45 45° WNW
Resurs 01 Rocket 2.7 19:54:51 32° SW 19:56:10 40° W 20:00:22 10° NNW
NOSS 3-2 (C) 4.0 19:50:10 10° NW 19:57:38 87° SW 20:00:13 50° SE
SJ 16-02 3.6 19:54:38 10° N 19:56:03 15° NNE 19:56:03 15° NNE
Cosmos 2297 Rocket 3.0 20:08:56 38° NE 20:08:56 38° NE 20:12:21 10° NNE
H-2A R/B 3.2 20:08:14 53° NNW 20:08:14 53° NNW 20:11:41 10° NNW
CENTAUR R/B 3.8 20:00:39 10° NW 20:08:35 51° WSW 20:12:44 31° S
USA 238 DEB 3.8 20:03:30 10° NW 20:10:50 88° SW 20:12:16 63° SE
USA 238 3.8 20:03:37 10° NW 20:10:56 89° SW 20:12:21 64° SE
Cosmos 1110 Rocket 4.1 20:12:51 71° WNW 20:12:57 72° WNW 20:18:10 10° NNE
Cosmos 2227 Rocket 4.2 20:26:18 17° NE 20:26:18 17° NE 20:27:35 10° NNE
BREEZE-M DEB (TANK) 3.3 20:16:21 10° WNW 20:21:44 69° WNW 20:21:44 69° WNW
Cosmos 1452 Rocket 4.5 20:19:18 10° SW 20:24:21 46° WNW 20:29:28 10° NNE
SL-16 R/B 2.7 20:25:59 10° NNW 20:30:33 52° N 20:30:33 52° N
Cosmos 1464 Rocket 4.0 20:29:13 10° N 20:35:08 79° N 20:35:08 79° N
USA 215 4.1 20:37:36 37° NE 20:39:20 44° N 20:45:28 10° WNW
Terra 3.5 20:56:53 31° NNW 20:56:53 31° NNW 20:59:27 10° NNW
ADEOS Rocket 3.4 20:58:19 66° WNW 20:58:19 66° WNW 21:04:33 10° NNW
Cosmos 2237 Rocket 3.9 21:03:34 10° NW 21:07:37 25° W 21:07:37 25° W
ATLAS CENTAUR R/B 4.1 21:06:07 10° WSW 21:19:31 61° NNW 21:22:22 38° NNE
CZ-4C R/B 3.2 21:24:52 10° NW 21:30:34 63° NNW 21:30:34 63° NNW
SJ 16-02 4.2 21:32:14 10° NNW 21:32:57 15° NNW 21:32:57 15° NNW
Cosmos 2344 4.5 21:29:34 10° NW 21:37:33 51° NE 21:38:54 48° ENE
ATLAS 3B R/B 3.8 21:41:23 10° NW 21:48:14 40° NNE 21:48:14 40° NNE
Cosmos 2297 Rocket 4.2 21:50:33 23° WNW 21:51:21 24° NW 21:55:55 10° N
Cosmos 2227 Rocket 4.2 22:08:01 25° NNW 22:08:01 25° NNW 22:11:18 10° NNE
USA 215 4.5 22:24:56 35° NW 22:24:56 35° NW 22:28:26 10° NW
ATLAS 2AS CENTAUR R/B 4.3 22:53:28 28° NE 22:53:28 28° NE 22:56:32 10° NE
Cosmos 2263 Rocket 4.5 23:04:25 19° N 23:04:25 19° N 23:06:15 10° NNE
SL-16 R/B 4.5 23:26:59 21° NE 23:26:59 21° NE 23:31:17 10° N
ATLAS 3B R/B 4.3 23:32:12 10° NW 23:35:28 29° NW 23:35:28 29° NW
Cosmos 2082 Rocket 4.4 23:43:20 10° N 23:46:10 21° NNE 23:46:10 21° NNE
